Theta_e
317 317 316 316 316 316 316 316 318 319 318 318 321 321 321 323 325 329 325 326 328 323 324 326 327 331 332 333 331 328 326 326 327 329 330 328 326 312 309 309 311 311 311
317 316 316 316 316 315 316 316 316 316 317 318 318 318 317 317 317 316 316 316 319 321 325 327 328 331 333 333 332 329 327 327 329 330 329 329 326 310 309 310 311 311 311
317 317 316 316 316 316 316 315 316 316 316 316 316 316 316 316 316 316 320 321 321 324 325 326 329 332 331 333 332 332 331 331 331 331 330 328 314 310 310 311 311 310 310
317 317 317 317 317 316 316 316 316 316 316 316 316 316 317 317 317 318 319 323 324 325 326 328 330 332 331 331 333 332 330 331 330 330 329 322 312 311 310 311 311 310 310
317 317 317 317 317 317 317 316 316 317 317 317 317 318 318 318 318 318 320 323 325 326 327 332 333 333 333 332 332 332 332 331 330 330 329 324 315 315 311 311 311 310 310
318 317 317 317 317 317 317 317 317 317 318 318 318 319 319 320 320 322 321 322 325 328 331 333 334 333 333 333 334 335 334 331 331 330 330 327 319 319 316 311 311 310 309
319 318 317 317 317 317 317 318 318 318 319 321 326 325 323 321 323 324 326 327 329 330 332 333 334 334 333 333 334 334 335 333 332 331 330 329 324 323 322 316 311 310 309
319 319 318 318 318 318 318 318 319 320 321 322 326 330 330 329 326 327 328 328 329 329 331 332 334 334 334 334 334 334 335 335 333 332 331 330 327 322 319 316 310 309 309
319 319 319 319 319 320 320 321 321 321 322 325 327 330 333 333 331 329 329 330 330 331 330 330 330 333 333 334 335 335 335 335 334 333 333 332 329 322 319 315 311 309 308
320 320 320 320 321 321 322 323 323 323 323 323 325 329 331 331 333 334 332 332 332 331 330 331 331 332 333 333 334 334 335 335 335 334 334 333 331 323 321 316 312 310 307
321 321 321 321 322 322 323 323 324 325 325 325 325 326 328 331 333 333 334 334 334 333 333 333 333 334 334 334 334 333 333 335 335 334 334 334 331 324 321 318 315 311 307
327 322 322 322 323 323 323 324 324 325 326 328 327 328 328 332 333 334 334 333 334 334 334 335 335 336 336 336 336 335 334 334 335 334 333 334 330 321 317 317 316 312 308
338 336 326 323 324 324 324 325 325 326 328 333 334 334 335 336 334 335 335 336 335 334 335 337 336 337 337 336 336 336 335 334 334 334 334 329 320 318 316 317 313 311 309
336 336 335 332 328 325 327 330 333 331 332 336 338 338 337 337 337 337 336 337 332 328 331 336 335 334 336 336 336 336 335 334 334 333 333 330 324 321 315 315 313 311 308
337 338 338 338 336 334 333 335 336 338 339 340 339 338 338 337 336 335 335 336 332 332 334 334 334 330 331 333 335 335 335 334 334 333 332 330 325 322 318 315 312 312 309
338 339 339 338 338 339 340 337 332 331 335 338 338 338 338 335 333 332 332 332 333 331 335 330 335 331 331 331 333 334 334 333 333 333 330 328 323 321 319 316 313 312 307
340 340 339 339 340 339 335 331 328 327 326 326 329 328 328 328 325 330 330 328 330 332 336 335 335 333 333 332 333 333 333 330 330 329 326 325 322 321 317 312 310 313 305
337 337 336 334 335 332 331 329 329 328 333 332 329 327 326 327 325 326 328 325 331 333 334 336 336 334 333 332 332 333 332 330 324 321 323 321 319 312 309 309 309 307 302
319 325 331 332 332 331 329 329 328 329 334 333 331 325 326 331 332 331 331 331 334 335 339 335 336 336 334 335 334 332 331 327 320 317 320 320 314 315 306 307 307 305 299
306 308 310 313 319 325 331 334 334 337 337 338 336 333 332 334 335 332 333 335 338 337 336 334 333 333 333 333 332 330 327 324 317 316 318 315 308 307 307 307 305 302 303
303 303 303 305 307 309 310 310 314 322 330 334 331 333 333 337 337 336 336 337 335 334 333 333 332 332 331 331 331 329 325 321 316 316 315 309 309 306 307 303 303 306 307
304 304 303 303 303 303 305 307 308 308 308 314 323 331 331 331 332 333 333 334 332 334 335 333 332 334 332 332 329 328 325 320 313 313 308 306 304 304 302 302 304 305 303
304 304 304 303 303 303 303 303 304 305 306 306 306 309 318 326 330 329 330 330 332 331 332 332 333 333 331 330 329 326 324 321 317 312 305 304 304 302 301 301 302 301 295
303 304 304 304 303 303 303 303 304 304 304 305 305 305 305 306 312 316 323 327 329 330 329 329 329 328 327 327 326 324 321 318 311 307 305 304 301 301 300 300 297 295 293
303 303 303 304 304 304 304 303 304 304 304 303 303 304 304 304 304 308 314 318 323 324 325 325 326 327 326 324 324 322 320 316 306 303 302 301 300 299 298 297 294 293 293
300 301 302 303 303 304 304 304 304 304 305 304 303 303 303 303 303 304 308 319 320 321 323 325 325 324 324 322 319 317 314 314 308 300 300 301 301 300 296 293 292 292 293
Wind_Speed
27 26 25 24 23 22 22 21 21 21 21 22 22 21 20 19 19 19 18 17 16 14 12 12 10 10 10 9 9 10 9 9 10 10 12 12 13 13 13 15 17 18 21
28 27 26 25 24 23 22 22 22 22 22 22 22 22 21 21 21 20 19 19 17 15 13 13 13 12 11 10 8 9 10 11 12 13 13 14 14 13 15 17 18 20 22
30 28 27 26 25 24 23 23 23 24 24 24 24 23 23 23 22 21 20 19 18 17 17 16 15 14 11 10 8 9 11 13 13 14 14 15 14 14 16 17 19 21 23
32 30 29 28 26 25 25 25 25 25 24 25 24 24 24 24 24 24 24 22 21 20 18 17 16 14 12 11 13 12 12 13 14 15 15 14 14 15 17 19 20 22 24
34 33 31 30 28 27 27 27 27 26 26 25 25 24 24 25 25 26 26 25 23 22 21 17 16 17 16 14 15 17 17 16 15 16 16 16 15 17 18 20 21 22 24
36 35 34 32 30 30 30 30 29 28 27 26 26 27 27 27 27 27 27 27 26 24 22 21 18 18 19 19 19 19 20 19 18 18 18 17 17 19 20 22 22 23 24
39 38 35 34 34 34 31 31 30 30 29 27 26 28 29 29 30 30 28 28 28 26 25 23 23 24 24 24 24 23 23 23 21 20 20 20 19 20 21 22 23 23 24
41 40 38 38 37 35 34 34 33 32 31 30 27 24 19 20 30 29 29 29 29 28 28 27 27 27 27 29 28 26 27 27 25 24 23 23 22 22 22 23 23 24 25
44 43 42 41 39 38 37 35 35 35 33 32 30 22 8 12 14 19 21 25 27 30 31 30 29 29 28 29 30 29 30 30 30 28 26 25 24 23 24 24 24 24 25
46 46 45 44 42 40 40 38 37 37 35 36 34 34 33 29 13 11 15 12 16 18 15 19 25 27 28 32 33 33 32 32 32 31 30 28 27 25 25 25 25 26 27
49 49 49 48 46 44 43 42 41 40 39 38 40 36 37 37 37 33 31 25 26 31 30 26 27 29 28 29 30 31 31 34 34 35 32 31 30 28 28 26 27 27 28
50 52 51 51 49 46 45 45 44 42 40 40 40 40 40 28 29 33 33 42 35 38 36 34 35 34 33 33 33 32 30 33 36 36 34 34 30 30 29 28 28 27 27
47 45 48 51 50 48 46 46 45 42 41 38 37 38 38 40 40 36 34 39 29 33 42 36 31 30 30 31 33 33 31 32 36 38 36 35 30 31 29 30 30 27 29
42 38 34 35 41 46 44 41 39 40 37 37 36 38 38 39 39 41 40 38 30 33 43 41 32 31 27 30 32 34 36 34 37 38 40 39 33 36 32 31 31 29 31
37 33 31 28 26 28 30 31 31 33 32 30 31 28 33 36 40 41 34 36 38 31 39 38 33 30 27 29 31 29 34 35 38 38 38 34 37 40 35 33 32 32 31
32 30 29 28 27 24 21 18 17 23 25 24 24 27 27 26 27 28 28 30 36 43 45 43 39 32 26 28 32 31 29 31 38 38 35 35 31 33 32 31 32 32 31
25 28 30 28 29 28 22 25 31 25 27 31 50 45 47 44 43 40 40 37 41 49 47 44 40 34 28 30 32 30 31 31 35 38 36 34 32 36 35 29 29 31 32
19 23 22 24 28 35 36 38 39 37 35 35 42 44 47 62 47 39 43 39 48 52 42 40 36 31 28 28 27 29 31 33 35 34 34 36 33 30 29 27 27 28 28
6 0 6 16 21 24 23 27 29 31 33 31 37 31 26 24 35 37 44 38 39 38 37 38 38 33 29 30 32 32 31 31 33 35 36 38 35 33 24 25 26 24 24
11 8 6 5 5 7 12 19 24 27 32 33 33 31 33 35 38 37 32 30 33 35 34 35 34 33 31 31 29 30 31 31 35 37 40 37 29 26 24 25 24 20 22
11 11 11 11 9 8 6 7 9 15 21 28 34 35 36 34 32 31 31 31 30 31 35 33 33 33 31 30 29 27 33 33 35 37 39 33 28 21 19 18 18 21 24
12 13 13 14 14 14 14 13 12 11 12 15 23 23 31 37 34 32 32 33 33 33 36 34 30 30 28 29 28 27 28 31 34 37 37 29 21 16 15 16 17 18 20
13 14 13 13 14 15 16 16 16 17 16 16 17 18 22 27 29 30 32 31 30 29 32 33 33 32 31 27 24 22 23 27 36 33 29 22 20 18 15 13 14 16 17
23 19 18 17 17 16 15 17 18 19 20 20 20 20 20 20 21 24 30 31 32 30 29 32 31 30 28 26 24 22 21 24 26 27 25 22 21 16 12 10 11 12 11
23 23 25 22 21 19 17 18 19 21 21 21 22 23 24 24 23 22 24 24 26 28 27 26 25 25 27 24 24 23 23 23 26 28 28 21 21 15 10 9 5 5 7
29 28 28 24 24 22 20 21 21 22 22 21 22 22 24 25 23 23 23 23 24 25 26 24 24 22 24 23 23 20 20 24 28 23 27 21 20 16 10 7 3 5 8
Wind_Direction
203 203 203 202 202 203 206 209 212 217 221 225 231 235 239 243 247 250 253 254 257 256 252 255 259 270 280 284 275 270 268 268 279 290 299 304 306 306 304 306 312 314 315
211 211 210 209 208 209 210 213 217 221 226 230 235 240 245 248 250 253 254 253 252 251 250 252 253 265 274 282 282 280 273 274 285 292 297 298 300 299 302 306 309 314 316
216 217 217 217 214 214 214 216 218 220 224 230 235 239 242 246 249 248 250 252 252 247 249 254 251 259 272 274 285 282 279 283 286 290 292 292 291 296 299 305 309 313 316
220 221 222 222 222 221 220 221 223 226 228 231 236 239 243 247 249 250 251 252 252 250 252 254 254 252 261 273 283 277 287 286 286 286 290 289 291 298 301 304 307 311 317
224 224 227 227 227 226 227 228 229 231 234 237 241 243 245 248 251 252 251 251 254 254 256 255 253 245 246 262 274 277 280 283 284 286 291 288 290 299 301 302 305 310 314
227 227 228 230 230 231 231 233 234 236 239 242 246 248 248 250 252 252 252 252 254 254 251 248 248 247 249 252 262 273 273 275 280 282 286 288 290 297 299 301 305 307 313
231 230 231 233 232 233 236 238 239 241 243 245 250 254 255 253 253 253 253 253 254 254 251 250 251 253 255 257 262 269 273 272 276 280 281 286 286 293 294 298 301 306 312
232 233 233 234 235 236 237 240 242 245 245 247 249 258 272 271 260 257 257 257 259 258 255 255 255 257 260 261 263 270 274 273 271 274 277 282 285 291 294 296 299 304 313
233 234 235 235 237 238 240 242 244 246 250 252 249 245 252 248 275 272 263 259 260 259 261 261 260 260 261 263 265 267 267 271 271 272 275 276 282 286 292 296 299 304 310
237 236 237 238 239 239 241 243 248 249 249 253 256 252 250 251 266 281 269 271 263 260 264 270 270 269 268 266 267 266 266 268 269 269 270 271 278 280 288 294 298 302 307
241 240 239 240 240 241 243 246 247 248 252 253 256 257 259 258 259 256 271 267 266 264 272 274 276 274 275 275 274 273 271 265 266 266 268 269 273 277 284 289 296 299 307
248 245 244 243 245 245 247 249 252 254 254 257 258 258 258 254 263 262 260 271 265 275 279 277 276 278 278 279 278 277 273 266 263 264 265 264 266 272 278 285 291 296 304
253 253 247 246 248 248 249 252 256 257 261 261 262 263 265 263 264 261 265 272 280 295 290 281 283 284 282 281 279 276 271 266 263 262 258 254 260 267 276 285 287 295 299
261 262 263 254 250 254 254 254 258 261 258 263 266 270 272 276 276 276 277 273 270 272 276 284 289 292 292 295 287 281 274 264 261 260 254 253 259 275 273 280 285 291 295
265 267 265 257 249 248 253 253 258 265 269 274 274 283 291 286 281 281 284 279 265 279 271 278 284 293 293 290 284 282 273 268 259 260 264 256 265 270 267 275 282 286 293
265 261 249 236 229 224 219 224 256 270 273 271 269 281 278 292 293 295 290 289 281 271 253 274 275 286 287 288 288 280 273 269 263 259 248 259 273 273 272 273 276 285 293
240 240 235 237 214 215 224 247 261 273 262 265 269 269 278 282 286 280 288 287 282 272 257 264 268 281 281 278 278 281 277 264 258 250 244 264 270 276 272 271 276 283 288
211 217 228 226 229 243 252 256 253 256 260 264 258 259 270 264 274 274 267 276 268 268 271 267 278 279 279 280 281 276 275 263 254 243 247 254 258 260 262 268 275 279 286
38 18 217 246 247 254 252 245 247 251 263 260 248 245 252 240 250 260 262 263 266 270 269 270 273 272 270 271 273 271 265 257 250 244 244 252 255 259 264 274 277 285 299
22 14 360 344 297 263 254 251 248 240 240 245 251 251 252 254 253 256 262 267 270 274 272 271 271 270 265 264 266 264 258 252 240 240 241 245 248 254 257 266 277 289 307
6 2 352 338 329 316 309 294 270 258 252 244 243 240 240 243 250 255 259 263 267 271 268 267 264 262 262 263 270 277 258 250 242 239 237 242 249 255 262 268 274 287 291
329 331 333 330 328 320 310 305 300 291 285 276 263 253 245 243 246 249 251 254 257 260 266 266 264 264 264 261 267 267 259 248 236 236 234 238 241 249 246 262 270 290 300
306 302 297 298 305 308 308 305 295 289 283 279 277 273 264 256 254 254 252 253 255 256 256 260 264 264 267 270 266 265 266 261 248 236 224 225 229 229 236 251 287 293 296
291 286 286 282 281 288 292 295 293 291 288 287 287 283 279 276 269 262 258 258 258 255 254 257 257 262 264 259 259 266 262 253 239 232 215 209 209 213 225 253 276 295 314
281 281 278 277 279 275 276 284 284 288 289 288 286 286 284 281 279 275 274 272 266 261 257 259 258 259 260 256 258 257 248 233 212 203 199 201 193 195 212 238 265 328 0
285 284 281 279 272 275 269 266 267 274 280 287 286 284 281 280 278 273 270 267 265 266 263 259 255 256 255 254 255 254 252 230 214 189 197 191 188 197 182 185 119 86 58